| time (UTC) | temp F | wind direction | speed MPH | gust MPH | rain 1hr in | rain 24hr in | rain mn in | humidity % | barometer mb |
| 20260510075557 | 60 | 360 | 2.0 | 6.0 | 0.00 | 0.00 | 0.00 | 71 | 1013.6 |
| 20260510075056 | 59 | 360 | 1.0 | 5.0 | 0.00 | 0.00 | 0.00 | 73 | 1013.7 |
| 20260510074605 | 59 | 360 | 2.0 | 5.0 | 0.00 | 0.00 | 0.00 | 73 | 1013.7 |
| 20260510074055 | 58 | 360 | 2.0 | 6.0 | 0.00 | 0.00 | 0.00 | 74 | 1013.7 |
| 20260510073556 | 58 | 157 | 3.0 | 6.0 | 0.00 | 0.00 | 0.00 | 72 | 1013.8 |
| 20260510073100 | 58 | 144 | 2.0 | 6.0 | 0.00 | 0.00 | 0.00 | 73 | 1013.7 |
| 20260510072556 | 58 | 360 | 2.0 | 6.0 | 0.00 | 0.00 | 0.00 | 74 | 1013.9 |
| 20260510072056 | 57 | 162 | 2.0 | 5.0 | 0.00 | 0.00 | 0.00 | 74 | 1013.8 |
| 20260510071557 | 57 | 360 | 1.0 | 5.0 | 0.00 | 0.00 | 0.00 | 74 | 1013.9 |
| 20260510071056 | 57 | 360 | 2.0 | 6.0 | 0.00 | 0.00 | 0.00 | 74 | 1014.0 |
| 20260510070556 | 57 | 360 | 2.0 | 6.0 | 0.00 | 0.00 | 0.00 | 74 | 1014.0 |
| 20260510070109 | 56 | 360 | 2.0 | 6.0 | 0.00 | 0.00 | 0.00 | 75 | 1014.0 |
| 20260510065556 | 56 | 360 | 3.0 | 6.0 | 0.00 | 0.00 | 0.00 | 75 | 1014.1 |
| 20260510065056 | 56 | 360 | 2.0 | 5.0 | 0.00 | 0.00 | 0.00 | 77 | 1014.1 |
| 20260510064600 | 55 | 360 | 2.0 | 4.0 | 0.00 | 0.00 | 0.00 | 77 | 1014.1 |
| 20260510064056 | 55 | 360 | 2.0 | 8.0 | 0.00 | 0.00 | 0.00 | 78 | 1014.0 |
| 20260510063556 | 54 | 0 | 1.0 | 8.0 | 0.00 | 0.00 | 0.00 | 79 | 1014.1 |
| 20260510063100 | 53 | 360 | 5.0 | 8.0 | 0.00 | 0.00 | 0.00 | 80 | 1014.0 |
| 20260510062556 | 53 | 360 | 4.0 | 8.0 | 0.00 | 0.00 | 0.00 | 83 | 1014.1 |
| 20260510062056 | 52 | 360 | 2.0 | 6.0 | 0.00 | 0.00 | 0.00 | 84 | 1014.2 |
| 20260510061556 | 51 | 360 | 1.0 | 5.0 | 0.00 | 0.00 | 0.00 | 87 | 1014.2 |
| 20260510061057 | 50 | 360 | 1.0 | 5.0 | 0.00 | 0.00 | 0.00 | 89 | 1014.2 |
| 20260510060557 | 49 | 360 | 2.0 | 5.0 | 0.00 | 0.00 | 0.00 | 90 | 1014.2 |
| 20260510055556 | 48 | 360 | 1.0 | 3.0 | 0.00 | 0.00 | 0.00 | 91 | 1014.3 |
| 20260510055057 | 48 | 0 | 0.0 | 2.0 | 0.00 | 0.00 | 0.00 | 91 | 1014.4 |
| 20260510054601 | 47 | 0 | 0.0 | 2.0 | 0.00 | 0.00 | 0.00 | 92 | 1014.4 |
| 20260510054057 | 47 | 0 | 0.0 | 1.0 | 0.00 | 0.00 | 0.00 | 92 | 1014.3 |
| 20260510053559 | 46 | 0 | 0.0 | 1.0 | 0.00 | 0.00 | 0.00 | 91 | 1014.4 |
| 20260510053055 | 46 | 0 | 0.0 | 1.0 | 0.00 | 0.00 | 0.00 | 92 | 1014.4 |
| 20260510052557 | 46 | 0 | 0.0 | 3.0 | 0.00 | 0.00 | 0.00 | 91 | 1014.4 |
| 20260510052056 | 46 | 0 | 0.0 | 3.0 | 0.00 | 0.00 | 0.00 | 91 | 1014.4 |
| 20260510051557 | 45 | 0 | 0.0 | 0.0 | 0.00 | 0.00 | 0.00 | 91 | 1014.3 |
| 20260510051100 | 45 | 0 | 0.0 | 0.0 | 0.00 | 0.00 | 0.00 | 91 | 1014.4 |
| 20260510050557 | 45 | 0 | 0.0 | 0.0 | 0.00 | 0.00 | 0.00 | 91 | 1014.4 |
| 20260510050100 | 45 | 0 | 0.0 | 0.0 | 0.00 | 0.00 | 0.00 | 91 | 1014.4 |
| 20260510045559 | 45 | 0 | 0.0 | 0.0 | 0.00 | 0.00 | 0.00 | 91 | 1014.4 |
| 20260510045056 | 44 | 0 | 0.0 | 3.0 | 0.00 | 0.00 | 0.00 | 90 | 1014.3 |
| 20260510044611 | 44 | 0 | 0.0 | 3.0 | 0.00 | 0.00 | 0.00 | 90 | 1014.4 |
| 20260510044100 | 44 | 0 | 0.0 | 0.0 | 0.00 | 0.00 | 0.00 | 90 | 1014.4 |
| 20260510043557 | 44 | 0 | 0.0 | 0.0 | 0.00 | 0.00 | 0.00 | 89 | 1014.5 |
| 20260510043104 | 44 | 0 | 0.0 | 0.0 | 0.00 | 0.00 | 0.00 | 89 | 1014.7 |
| 20260510042557 | 44 | 0 | 0.0 | 0.0 | 0.00 | 0.00 | 0.00 | 89 | 1014.7 |
| 20260510042059 | 44 | 0 | 0.0 | 0.0 | 0.00 | 0.00 | 0.00 | 89 | 1014.7 |
| 20260510041559 | 44 | 0 | 0.0 | 0.0 | 0.00 | 0.00 | 0.00 | 89 | 1014.7 |
| 20260510041057 | 43 | 0 | 0.0 | 0.0 | 0.00 | 0.00 | 0.00 | 88 | 1014.7 |
| 20260510040558 | 43 | 0 | 0.0 | 0.0 | 0.00 | 0.00 | 0.00 | 88 | 1014.7 |
| 20260510040056 | 43 | 0 | 0.0 | 0.0 | 0.00 | 0.00 | 0.00 | 88 | 1014.7 |
| 20260510035557 | 43 | 0 | 0.0 | 0.0 | 0.00 | 0.00 | 0.00 | 87 | 1014.8 |
| 20260510035059 | 43 | 0 | 0.0 | 0.0 | 0.00 | 0.00 | 0.00 | 87 | 1014.9 |
| 20260510034558 | 43 | 0 | 0.0 | 0.0 | 0.00 | 0.00 | 0.00 | 87 | 1014.9 |
| 20260510034058 | 44 | 0 | 0.0 | 0.0 | 0.00 | 0.00 | 0.00 | 87 | 1014.8 |
| 20260510033601 | 44 | 0 | 0.0 | 1.0 | 0.00 | 0.00 | 0.00 | 86 | 1014.9 |
| 20260510033123 | 44 | 0 | 0.0 | 2.0 | 0.00 | 0.00 | 0.00 | 86 | 1014.9 |
| 20260510032600 | 44 | 0 | 0.0 | 3.0 | 0.00 | 0.00 | 0.00 | 86 | 1014.9 |
| 20260510032057 | 44 | 0 | 0.0 | 3.0 | 0.00 | 0.00 | 0.00 | 86 | 1015.0 |
| 20260510031619 | 44 | 360 | 0.0 | 0.0 | 0.00 | 0.00 | 0.00 | 86 | 1015.0 |
| 20260510031058 | 44 | 0 | 0.0 | 0.0 | 0.00 | 0.00 | 0.00 | 86 | 1014.9 |
| 20260510030557 | 45 | 0 | 0.0 | 0.0 | 0.00 | 0.00 | 0.00 | 86 | 1015.0 |
| 20260510030101 | 45 | 0 | 0.0 | 0.0 | 0.00 | 0.00 | 0.00 | 86 | 1014.9 |
| 20260510025557 | 45 | 0 | 0.0 | 0.0 | 0.00 | 0.00 | 0.00 | 86 | 1015.1 |
| 20260510025058 | 45 | 0 | 0.0 | 0.0 | 0.00 | 0.00 | 0.00 | 86 | 1015.1 |
| 20260510024557 | 45 | 0 | 0.0 | 0.0 | 0.00 | 0.00 | 0.00 | 86 | 1015.1 |
| 20260510024101 | 45 | 0 | 0.0 | 1.0 | 0.00 | 0.00 | 0.00 | 87 | 1015.2 |
| 20260510023557 | 45 | 0 | 0.0 | 3.0 | 0.00 | 0.00 | 0.00 | 87 | 1015.2 |
| 20260510023055 | 45 | 0 | 0.0 | 3.0 | 0.00 | 0.00 | 0.00 | 87 | 1015.3 |
| 20260510022557 | 45 | 360 | 0.0 | 4.0 | 0.00 | 0.00 | 0.00 | 87 | 1015.3 |
| 20260510022058 | 45 | 0 | 0.0 | 4.0 | 0.00 | 0.00 | 0.00 | 87 | 1015.2 |
| 20260510021556 | 45 | 360 | 2.0 | 4.0 | 0.00 | 0.00 | 0.00 | 87 | 1015.3 |
| 20260510021056 | 45 | 360 | 2.0 | 5.0 | 0.00 | 0.00 | 0.00 | 87 | 1015.3 |
| 20260510020557 | 45 | 360 | 2.0 | 5.0 | 0.00 | 0.00 | 0.00 | 86 | 1015.4 |
| 20260510020058 | 45 | 360 | 2.0 | 5.0 | 0.00 | 0.00 | 0.00 | 86 | 1015.4 |
| 20260510015600 | 45 | 360 | 1.0 | 3.0 | 0.00 | 0.00 | 0.00 | 85 | 1015.5 |
| 20260510015056 | 45 | 360 | 0.0 | 1.0 | 0.00 | 0.00 | 0.00 | 84 | 1015.6 |
| 20260510014608 | 45 | 0 | 0.0 | 0.0 | 0.00 | 0.00 | 0.00 | 84 | 1015.7 |
| 20260510014058 | 46 | 0 | 0.0 | 0.0 | 0.00 | 0.00 | 0.00 | 84 | 1015.8 |
| 20260510013558 | 46 | 0 | 0.0 | 0.0 | 0.00 | 0.00 | 0.00 | 85 | 1015.7 |
| 20260510013057 | 46 | 0 | 0.0 | 2.0 | 0.00 | 0.00 | 0.00 | 85 | 1015.8 |
| 20260510012557 | 46 | 0 | 0.0 | 3.0 | 0.00 | 0.00 | 0.00 | 85 | 1015.7 |
| 20260510012059 | 46 | 0 | 0.0 | 4.0 | 0.00 | 0.00 | 0.00 | 85 | 1015.6 |
| 20260510011600 | 46 | 0 | 1.0 | 6.0 | 0.00 | 0.00 | 0.00 | 85 | 1015.7 |
| 20260510011101 | 46 | 360 | 1.0 | 8.0 | 0.00 | 0.00 | 0.00 | 85 | 1015.7 |
| 20260510010557 | 46 | 360 | 1.0 | 8.0 | 0.00 | 0.00 | 0.00 | 85 | 1015.6 |
| 20260510010103 | 46 | 360 | 3.0 | 8.0 | 0.00 | 0.00 | 0.00 | 85 | 1015.7 |
| 20260510005557 | 46 | 360 | 3.0 | 8.0 | 0.00 | 0.00 | 0.00 | 85 | 1015.8 |
| 20260510005056 | 46 | 360 | 3.0 | 8.0 | 0.00 | 0.00 | 0.00 | 86 | 1015.8 |
| 20260510004558 | 46 | 360 | 3.0 | 8.0 | 0.00 | 0.00 | 0.00 | 86 | 1015.8 |
| 20260510004056 | 46 | 360 | 2.0 | 6.0 | 0.00 | 0.00 | 0.00 | 86 | 1016.0 |
| 20260510003558 | 46 | 360 | 2.0 | 6.0 | 0.00 | 0.00 | 0.00 | 86 | 1016.1 |
| 20260510003101 | 46 | 360 | 2.0 | 6.0 | 0.00 | 0.00 | 0.00 | 86 | 1016.1 |
| 20260510002556 | 46 | 360 | 3.0 | 6.0 | 0.00 | 0.00 | 0.00 | 86 | 1016.1 |
| 20260510002057 | 46 | 360 | 3.0 | 6.0 | 0.00 | 0.00 | 0.00 | 86 | 1016.1 |
| 20260510001557 | 46 | 360 | 1.0 | 5.0 | 0.00 | 0.00 | 0.00 | 86 | 1016.3 |
| 20260510001124 | 46 | 360 | 1.0 | 6.0 | 0.00 | 0.00 | 0.00 | 86 | 1016.3 |
| 20260510000601 | 46 | 360 | 1.0 | 8.0 | 0.00 | 0.00 | 0.00 | 87 | 1016.4 |
| 20260510000059 | 46 | 360 | 1.0 | 8.0 | 0.00 | 0.00 | 0.00 | 87 | 1016.4 |
| 20260509235559 | 45 | 360 | 2.0 | 9.0 | 0.00 | 0.00 | 0.00 | 87 | 1016.5 |
| 20260509235057 | 45 | 360 | 3.0 | 9.0 | 0.00 | 0.00 | 0.00 | 88 | 1016.6 |
| 20260509234606 | 45 | 360 | 2.0 | 6.0 | 0.00 | 0.00 | 0.00 | 88 | 1016.6 |
| 20260509234057 | 45 | 360 | 2.0 | 6.0 | 0.00 | 0.00 | 0.00 | 88 | 1016.6 |
| 20260509233559 | 45 | 360 | 3.0 | 6.0 | 0.00 | 0.00 | 0.00 | 88 | 1016.6 |
| 20260509233057 | 45 | 360 | 3.0 | 6.0 | 0.00 | 0.00 | 0.00 | 87 | 1016.7 |
| 20260509232557 | 44 | 360 | 2.0 | 6.0 | 0.00 | 0.00 | 0.00 | 87 | 1016.7 |
| 20260509232057 | 44 | 360 | 2.0 | 5.0 | 0.00 | 0.00 | 0.00 | 86 | 1016.9 |
| 20260509231556 | 44 | 360 | 1.0 | 5.0 | 0.00 | 0.00 | 0.00 | 86 | 1017.0 |
| 20260509231057 | 44 | 0 | 1.0 | 4.0 | 0.00 | 0.00 | 0.00 | 85 | 1017.0 |
| 20260509230556 | 44 | 360 | 1.0 | 4.0 | 0.00 | 0.00 | 0.00 | 85 | 1017.1 |
| 20260509230057 | 44 | 360 | 2.0 | 4.0 | 0.00 | 0.00 | 0.00 | 83 | 1017.0 |
| 20260509225557 | 44 | 360 | 1.0 | 4.0 | 0.00 | 0.00 | 0.00 | 82 | 1017.1 |
| 20260509225057 | 45 | 360 | 1.0 | 3.0 | 0.00 | 0.00 | 0.00 | 82 | 1017.3 |
| 20260509224557 | 45 | 0 | 1.0 | 2.0 | 0.00 | 0.00 | 0.00 | 82 | 1017.5 |
| 20260509224058 | 45 | 360 | 0.0 | 2.0 | 0.00 | 0.00 | 0.00 | 82 | 1017.5 |
| 20260509223557 | 45 | 0 | 0.0 | 1.0 | 0.00 | 0.00 | 0.00 | 82 | 1017.6 |
| 20260509223059 | 45 | 0 | 0.0 | 0.0 | 0.00 | 0.00 | 0.00 | 82 | 1017.5 |
| 20260509222559 | 46 | 0 | 0.0 | 0.0 | 0.00 | 0.00 | 0.00 | 81 | 1017.4 |
| 20260509222057 | 46 | 0 | 0.0 | 2.0 | 0.00 | 0.00 | 0.00 | 81 | 1017.4 |
| 20260509221557 | 46 | 0 | 0.0 | 2.0 | 0.00 | 0.00 | 0.00 | 82 | 1017.4 |
| 20260509221057 | 46 | 0 | 0.0 | 3.0 | 0.00 | 0.00 | 0.00 | 82 | 1017.4 |
| 20260509220557 | 46 | 0 | 0.0 | 3.0 | 0.00 | 0.00 | 0.00 | 82 | 1017.5 |
| 20260509215557 | 47 | 360 | 2.0 | 4.0 | 0.00 | 0.00 | 0.00 | 81 | 1017.7 |
| 20260509215057 | 47 | 360 | 0.0 | 3.0 | 0.00 | 0.00 | 0.00 | 81 | 1017.8 |
| 20260509214558 | 47 | 0 | 0.0 | 3.0 | 0.00 | 0.00 | 0.00 | 81 | 1017.8 |
| 20260509214057 | 47 | 0 | 0.0 | 1.0 | 0.00 | 0.00 | 0.00 | 80 | 1017.9 |
| 20260509213557 | 48 | 0 | 0.0 | 2.0 | 0.00 | 0.00 | 0.00 | 80 | 1017.9 |
| 20260509213058 | 48 | 0 | 0.0 | 3.0 | 0.00 | 0.00 | 0.00 | 80 | 1017.9 |
| 20260509212557 | 48 | 360 | 0.0 | 3.0 | 0.00 | 0.00 | 0.00 | 80 | 1017.9 |
| 20260509212057 | 48 | 360 | 2.0 | 3.0 | 0.00 | 0.00 | 0.00 | 80 | 1017.9 |
| 20260509211604 | 49 | 360 | 0.0 | 3.0 | 0.00 | 0.00 | 0.00 | 79 | 1017.9 |
| 20260509211057 | 49 | 0 | 0.0 | 3.0 | 0.00 | 0.00 | 0.00 | 78 | 1018.0 |
| 20260509210557 | 49 | 0 | 0.0 | 3.0 | 0.00 | 0.00 | 0.00 | 77 | 1017.8 |
| 20260509210100 | 49 | 0 | 0.0 | 3.0 | 0.00 | 0.00 | 0.00 | 77 | 1017.9 |
| 20260509205558 | 50 | 0 | 0.0 | 3.0 | 0.00 | 0.00 | 0.00 | 77 | 1017.9 |
| 20260509205101 | 50 | 360 | 0.0 | 2.0 | 0.00 | 0.00 | 0.00 | 76 | 1017.9 |
| 20260509204604 | 50 | 0 | 0.0 | 2.0 | 0.00 | 0.00 | 0.00 | 76 | 1017.9 |
| 20260509204058 | 51 | 0 | 0.0 | 3.0 | 0.00 | 0.00 | 0.00 | 76 | 1017.9 |
| 20260509203556 | 51 | 0 | 1.0 | 3.0 | 0.00 | 0.00 | 0.00 | 75 | 1018.0 |
| 20260509203055 | 51 | 360 | 1.0 | 3.0 | 0.00 | 0.00 | 0.00 | 75 | 1018.1 |
| 20260509202556 | 51 | 360 | 1.0 | 3.0 | 0.00 | 0.00 | 0.00 | 75 | 1018.1 |
| 20260509202057 | 51 | 360 | 1.0 | 4.0 | 0.00 | 0.00 | 0.00 | 75 | 1018.1 |
| 20260509201600 | 52 | 360 | 1.0 | 4.0 | 0.00 | 0.00 | 0.00 | 75 | 1018.1 |
| 20260509201057 | 52 | 0 | 2.0 | 9.0 | 0.00 | 0.00 | 0.00 | 75 | 1018.1 |
| 20260509200555 | 52 | 360 | 3.0 | 9.0 | 0.00 | 0.00 | 0.00 | 75 | 1018.1 |
| 20260509200057 | 52 | 360 | 4.0 | 6.0 | 0.00 | 0.00 | 0.00 | 74 | 1018.0 |
| 20260509195558 | 53 | 360 | 2.0 | 6.0 | 0.00 | 0.00 | 0.00 | 74 | 1018.1 |
| 20260509195057 | 53 | 360 | 2.0 | 5.0 | 0.00 | 0.00 | 0.00 | 73 | 1018.1 |
| 20260509194558 | 53 | 360 | 2.0 | 4.0 | 0.00 | 0.00 | 0.00 | 73 | 1018.1 |
| 20260509194101 | 53 | 360 | 1.0 | 4.0 | 0.00 | 0.00 | 0.00 | 73 | 1018.1 |
| 20260509193557 | 53 | 360 | 1.0 | 4.0 | 0.00 | 0.00 | 0.00 | 73 | 1018.1 |
| 20260509193058 | 54 | 360 | 2.0 | 4.0 | 0.00 | 0.00 | 0.00 | 72 | 1018.0 |
| 20260509192557 | 54 | 360 | 1.0 | 5.0 | 0.00 | 0.00 | 0.00 | 72 | 1018.0 |
| 20260509192057 | 54 | 360 | 2.0 | 5.0 | 0.00 | 0.00 | 0.00 | 72 | 1017.9 |
| 20260509191611 | 54 | 360 | 2.0 | 5.0 | 0.00 | 0.00 | 0.00 | 72 | 1017.9 |
| 20260509191100 | 54 | 360 | 3.0 | 5.0 | 0.00 | 0.00 | 0.00 | 71 | 1018.0 |
| 20260509190556 | 55 | 360 | 2.0 | 4.0 | 0.00 | 0.00 | 0.00 | 70 | 1018.0 |
| 20260509190106 | 55 | 360 | 2.0 | 4.0 | 0.00 | 0.00 | 0.00 | 70 | 1018.0 |
| 20260509185557 | 55 | 360 | 1.0 | 4.0 | 0.00 | 0.00 | 0.00 | 69 | 1018.0 |
| 20260509185057 | 55 | 360 | 1.0 | 5.0 | 0.00 | 0.00 | 0.00 | 69 | 1018.0 |
| 20260509184558 | 55 | 360 | 1.0 | 6.0 | 0.00 | 0.00 | 0.00 | 68 | 1017.9 |
| 20260509184058 | 56 | 360 | 3.0 | 6.0 | 0.00 | 0.00 | 0.00 | 68 | 1017.8 |
| 20260509183556 | 56 | 360 | 3.0 | 6.0 | 0.00 | 0.00 | 0.00 | 67 | 1017.8 |
| 20260509183107 | 56 | 360 | 2.0 | 6.0 | 0.00 | 0.00 | 0.00 | 67 | 1017.9 |
| 20260509182556 | 56 | 360 | 2.0 | 6.0 | 0.00 | 0.00 | 0.00 | 66 | 1017.9 |
| 20260509182057 | 57 | 360 | 3.0 | 6.0 | 0.00 | 0.00 | 0.00 | 66 | 1018.0 |
| 20260509181606 | 57 | 360 | 3.0 | 6.0 | 0.00 | 0.00 | 0.00 | 65 | 1017.9 |
| 20260509181058 | 57 | 360 | 3.0 | 9.0 | 0.00 | 0.00 | 0.00 | 65 | 1017.9 |
| 20260509180558 | 57 | 360 | 4.0 | 12.0 | 0.00 | 0.00 | 0.00 | 64 | 1017.9 |
| 20260509180059 | 58 | 360 | 5.0 | 14.0 | 0.00 | 0.00 | 0.00 | 64 | 1017.8 |
| 20260509175557 | 58 | 360 | 4.0 | 14.0 | 0.00 | 0.00 | 0.00 | 64 | 1017.9 |
| 20260509175057 | 58 | 360 | 7.0 | 14.0 | 0.00 | 0.00 | 0.00 | 63 | 1018.0 |
| 20260509174603 | 58 | 360 | 5.0 | 12.0 | 0.00 | 0.00 | 0.00 | 63 | 1018.0 |
| 20260509174058 | 59 | 360 | 5.0 | 12.0 | 0.00 | 0.00 | 0.00 | 62 | 1017.9 |
| 20260509173556 | 59 | 360 | 5.0 | 12.0 | 0.00 | 0.00 | 0.00 | 62 | 1017.9 |
| 20260509173112 | 59 | 360 | 5.0 | 12.0 | 0.00 | 0.00 | 0.00 | 62 | 1017.8 |
| 20260509172557 | 59 | 360 | 7.0 | 13.0 | 0.00 | 0.00 | 0.00 | 62 | 1017.7 |
| 20260509172057 | 59 | 360 | 4.0 | 17.0 | 0.00 | 0.00 | 0.00 | 61 | 1017.8 |
| 20260509171603 | 59 | 360 | 9.0 | 17.0 | 0.00 | 0.00 | 0.00 | 61 | 1017.8 |
| 20260509171056 | 59 | 360 | 7.0 | 15.0 | 0.00 | 0.00 | 0.00 | 61 | 1017.8 |
| 20260509170600 | 59 | 360 | 6.0 | 15.0 | 0.00 | 0.00 | 0.00 | 62 | 1017.9 |
| 20260509170055 | 60 | 360 | 7.0 | 15.0 | 0.00 | 0.00 | 0.00 | 61 | 1017.8 |
| 20260509165557 | 60 | 360 | 6.0 | 13.0 | 0.00 | 0.00 | 0.00 | 61 | 1017.8 |
| 20260509165100 | 60 | 360 | 7.0 | 13.0 | 0.00 | 0.00 | 0.00 | 61 | 1017.9 |
| 20260509164555 | 60 | 360 | 6.0 | 14.0 | 0.00 | 0.00 | 0.00 | 61 | 1017.9 |
| 20260509164059 | 59 | 360 | 9.0 | 14.0 | 0.00 | 0.00 | 0.00 | 62 | 1017.9 |
| 20260509163559 | 59 | 360 | 6.0 | 11.0 | 0.00 | 0.00 | 0.00 | 64 | 1018.1 |
| 20260509163105 | 59 | 360 | 4.0 | 12.0 | 0.00 | 0.00 | 0.00 | 63 | 1018.2 |
| 20260509162557 | 59 | 360 | 6.0 | 12.0 | 0.00 | 0.00 | 0.00 | 63 | 1018.2 |
| 20260509162057 | 59 | 360 | 4.0 | 14.0 | 0.00 | 0.00 | 0.00 | 62 | 1018.2 |
| 20260509161603 | 59 | 360 | 7.0 | 14.0 | 0.00 | 0.00 | 0.00 | 61 | 1018.2 |
| 20260509161056 | 60 | 360 | 8.0 | 14.0 | 0.00 | 0.00 | 0.00 | 62 | 1018.3 |
| 20260509160557 | 60 | 360 | 7.0 | 12.0 | 0.00 | 0.00 | 0.00 | 62 | 1018.3 |
| 20260509160100 | 60 | 360 | 6.0 | 13.0 | 0.00 | 0.00 | 0.00 | 62 | 1018.4 |
| 20260509155558 | 60 | 360 | 5.0 | 13.0 | 0.00 | 0.00 | 0.00 | 61 | 1018.4 |
| 20260509155101 | 60 | 360 | 5.0 | 11.0 | 0.00 | 0.00 | 0.00 | 61 | 1018.4 |
| 20260509154614 | 60 | 360 | 5.0 | 11.0 | 0.00 | 0.00 | 0.00 | 61 | 1018.4 |
| 20260509154058 | 60 | 360 | 6.0 | 11.0 | 0.00 | 0.00 | 0.00 | 61 | 1018.5 |
| 20260509153602 | 60 | 360 | 5.0 | 11.0 | 0.00 | 0.00 | 0.00 | 60 | 1018.6 |
| 20260509153058 | 60 | 360 | 5.0 | 11.0 | 0.00 | 0.00 | 0.00 | 60 | 1018.6 |
| 20260509152600 | 60 | 360 | 5.0 | 13.0 | 0.00 | 0.00 | 0.00 | 59 | 1018.7 |
| 20260509152056 | 60 | 360 | 5.0 | 13.0 | 0.00 | 0.00 | 0.00 | 60 | 1018.7 |
| 20260509151558 | 60 | 360 | 6.0 | 11.0 | 0.00 | 0.00 | 0.00 | 58 | 1018.8 |
| 20260509151057 | 61 | 360 | 6.0 | 11.0 | 0.00 | 0.00 | 0.00 | 59 | 1018.8 |
| 20260509150557 | 61 | 360 | 6.0 | 11.0 | 0.00 | 0.00 | 0.00 | 58 | 1018.8 |
| 20260509150055 | 61 | 360 | 5.0 | 14.0 | 0.00 | 0.00 | 0.00 | 58 | 1018.9 |
| 20260509145557 | 61 | 360 | 7.0 | 14.0 | 0.00 | 0.00 | 0.00 | 58 | 1018.9 |
| 20260509145056 | 61 | 360 | 8.0 | 12.0 | 0.00 | 0.00 | 0.00 | 58 | 1018.9 |
| 20260509144610 | 61 | 360 | 7.0 | 13.0 | 0.00 | 0.00 | 0.00 | 58 | 1018.9 |
| 20260509144056 | 61 | 360 | 4.0 | 13.0 | 0.00 | 0.00 | 0.00 | 60 | 1019.0 |
| 20260509143556 | 61 | 360 | 8.0 | 13.0 | 0.00 | 0.00 | 0.00 | 58 | 1019.0 |
| 20260509143056 | 62 | 360 | 5.0 | 13.0 | 0.00 | 0.00 | 0.00 | 58 | 1019.1 |
| 20260509142556 | 62 | 360 | 6.0 | 13.0 | 0.00 | 0.00 | 0.00 | 58 | 1019.1 |
| 20260509142056 | 62 | 360 | 8.0 | 12.0 | 0.00 | 0.00 | 0.00 | 56 | 1019.1 |
| 20260509141607 | 62 | 360 | 5.0 | 13.0 | 0.00 | 0.00 | 0.00 | 59 | 1019.1 |
| 20260509141056 | 61 | 360 | 6.0 | 13.0 | 0.00 | 0.00 | 0.00 | 58 | 1019.2 |
| 20260509140556 | 61 | 360 | 7.0 | 12.0 | 0.00 | 0.00 | 0.00 | 57 | 1019.1 |
| 20260509140110 | 61 | 360 | 6.0 | 12.0 | 0.00 | 0.00 | 0.00 | 57 | 1019.3 |
| 20260509135556 | 61 | 360 | 5.0 | 12.0 | 0.00 | 0.00 | 0.00 | 58 | 1019.3 |
| 20260509135056 | 61 | 360 | 5.0 | 11.0 | 0.00 | 0.00 | 0.00 | 59 | 1019.4 |
| 20260509134607 | 61 | 360 | 5.0 | 12.0 | 0.00 | 0.00 | 0.00 | 59 | 1019.4 |
| 20260509134056 | 61 | 360 | 5.0 | 12.0 | 0.00 | 0.00 | 0.00 | 57 | 1019.4 |
| 20260509133558 | 61 | 360 | 6.0 | 12.0 | 0.00 | 0.00 | 0.00 | 56 | 1019.5 |
| 20260509133105 | 61 | 360 | 7.0 | 12.0 | 0.00 | 0.00 | 0.00 | 57 | 1019.5 |
| 20260509132558 | 61 | 360 | 6.0 | 12.0 | 0.00 | 0.00 | 0.00 | 57 | 1019.5 |
| 20260509132057 | 61 | 360 | 6.0 | 12.0 | 0.00 | 0.00 | 0.00 | 57 | 1019.6 |
| 20260509131603 | 61 | 360 | 5.0 | 10.0 | 0.00 | 0.00 | 0.00 | 58 | 1019.6 |
| 20260509131058 | 61 | 360 | 4.0 | 10.0 | 0.00 | 0.00 | 0.00 | 59 | 1019.7 |
| 20260509130557 | 61 | 360 | 2.0 | 10.0 | 0.00 | 0.00 | 0.00 | 60 | 1019.8 |
| 20260509130108 | 61 | 360 | 4.0 | 10.0 | 0.00 | 0.00 | 0.00 | 58 | 1019.8 |
| 20260509125556 | 61 | 360 | 3.0 | 10.0 | 0.00 | 0.00 | 0.00 | 60 | 1019.8 |
| 20260509125056 | 61 | 360 | 4.0 | 9.0 | 0.00 | 0.00 | 0.00 | 58 | 1019.8 |
| 20260509124606 | 61 | 360 | 3.0 | 10.0 | 0.00 | 0.00 | 0.00 | 57 | 1019.7 |
| 20260509124056 | 61 | 360 | 5.0 | 10.0 | 0.00 | 0.00 | 0.00 | 56 | 1019.8 |
| 20260509123557 | 61 | 360 | 5.0 | 11.0 | 0.00 | 0.00 | 0.00 | 58 | 1019.8 |
| 20260509123054 | 61 | 360 | 5.0 | 12.0 | 0.00 | 0.00 | 0.00 | 57 | 1019.9 |
| 20260509122556 | 61 | 360 | 7.0 | 12.0 | 0.00 | 0.00 | 0.00 | 57 | 1020.0 |
| 20260509122055 | 61 | 360 | 5.0 | 11.0 | 0.00 | 0.00 | 0.00 | 57 | 1020.0 |
| 20260509121604 | 61 | 360 | 4.0 | 10.0 | 0.00 | 0.00 | 0.00 | 59 | 1020.0 |
| 20260509121057 | 61 | 360 | 3.0 | 10.0 | 0.00 | 0.00 | 0.00 | 58 | 1020.0 |
| 20260509120557 | 61 | 360 | 4.0 | 13.0 | 0.00 | 0.00 | 0.00 | 58 | 1020.0 |
| 20260509120057 | 61 | 360 | 7.0 | 13.0 | 0.00 | 0.00 | 0.00 | 58 | 1020.0 |
| 20260509115556 | 61 | 360 | 5.0 | 13.0 | 0.00 | 0.00 | 0.00 | 59 | 1020.1 |
| 20260509115100 | 61 | 360 | 6.0 | 13.0 | 0.00 | 0.00 | 0.00 | 59 | 1020.0 |
| 20260509114554 | 62 | 360 | 6.0 | 12.0 | 0.00 | 0.00 | 0.00 | 59 | 1020.1 |
| 20260509114056 | 62 | 360 | 6.0 | 12.0 | 0.00 | 0.00 | 0.00 | 59 | 1020.1 |
| 20260509113559 | 62 | 360 | 5.0 | 11.0 | 0.00 | 0.00 | 0.00 | 63 | 1020.1 |
| 20260509113058 | 62 | 360 | 5.0 | 10.0 | 0.00 | 0.00 | 0.00 | 61 | 1020.2 |
| 20260509112601 | 61 | 360 | 4.0 | 10.0 | 0.00 | 0.00 | 0.00 | 62 | 1020.2 |
| 20260509112057 | 61 | 360 | 5.0 | 11.0 | 0.00 | 0.00 | 0.00 | 65 | 1020.2 |
| 20260509111603 | 61 | 360 | 6.0 | 11.0 | 0.00 | 0.00 | 0.00 | 63 | 1020.2 |
| 20260509111058 | 61 | 360 | 5.0 | 13.0 | 0.00 | 0.00 | 0.00 | 65 | 1020.3 |
| 20260509110557 | 61 | 360 | 3.0 | 13.0 | 0.00 | 0.00 | 0.00 | 66 | 1020.2 |
| 20260509110056 | 61 | 360 | 7.0 | 13.0 | 0.00 | 0.00 | 0.00 | 65 | 1020.2 |
| 20260509105557 | 61 | 360 | 4.0 | 12.0 | 0.00 | 0.00 | 0.00 | 68 | 1020.2 |
| 20260509105057 | 60 | 360 | 6.0 | 12.0 | 0.00 | 0.00 | 0.00 | 67 | 1020.3 |
| 20260509104557 | 60 | 360 | 7.0 | 12.0 | 0.00 | 0.00 | 0.00 | 68 | 1020.4 |
| 20260509104057 | 60 | 360 | 5.0 | 11.0 | 0.00 | 0.00 | 0.00 | 67 | 1020.4 |
| 20260509103559 | 60 | 360 | 5.0 | 12.0 | 0.00 | 0.00 | 0.00 | 69 | 1020.4 |
| 20260509103103 | 60 | 360 | 6.0 | 12.0 | 0.00 | 0.00 | 0.00 | 69 | 1020.5 |
| 20260509102559 | 59 | 360 | 4.0 | 12.0 | 0.00 | 0.00 | 0.00 | 72 | 1020.6 |
| 20260509102057 | 59 | 360 | 5.0 | 12.0 | 0.00 | 0.00 | 0.00 | 72 | 1020.6 |
| 20260509101558 | 59 | 360 | 8.0 | 13.0 | 0.00 | 0.00 | 0.00 | 69 | 1020.6 |
| 20260509101057 | 59 | 360 | 7.0 | 13.0 | 0.00 | 0.00 | 0.00 | 69 | 1020.6 |
| 20260509100557 | 59 | 360 | 4.0 | 11.0 | 0.00 | 0.00 | 0.00 | 71 | 1020.6 |
| 20260509100058 | 58 | 360 | 6.0 | 11.0 | 0.00 | 0.00 | 0.00 | 72 | 1020.7 |
| 20260509095600 | 58 | 360 | 3.0 | 12.0 | 0.00 | 0.00 | 0.00 | 75 | 1020.7 |
| 20260509095057 | 58 | 360 | 7.0 | 12.0 | 0.00 | 0.00 | 0.00 | 72 | 1020.8 |
| 20260509094557 | 58 | 360 | 7.0 | 12.0 | 0.00 | 0.00 | 0.00 | 72 | 1020.8 |
| 20260509094056 | 58 | 360 | 6.0 | 12.0 | 0.00 | 0.00 | 0.00 | 73 | 1020.9 |
| 20260509093557 | 57 | 360 | 3.0 | 11.0 | 0.00 | 0.00 | 0.00 | 72 | 1020.9 |
| 20260509093057 | 57 | 360 | 5.0 | 11.0 | 0.00 | 0.00 | 0.00 | 74 | 1020.9 |
| 20260509092557 | 57 | 360 | 4.0 | 10.0 | 0.00 | 0.00 | 0.00 | 74 | 1020.8 |
| 20260509092057 | 57 | 360 | 4.0 | 10.0 | 0.00 | 0.00 | 0.00 | 75 | 1020.8 |
| 20260509091557 | 57 | 360 | 5.0 | 10.0 | 0.00 | 0.00 | 0.00 | 73 | 1020.8 |
| 20260509091058 | 56 | 360 | 5.0 | 10.0 | 0.00 | 0.00 | 0.00 | 74 | 1020.8 |
| 20260509090557 | 56 | 360 | 5.0 | 10.0 | 0.00 | 0.00 | 0.00 | 73 | 1020.8 |
| 20260509090109 | 56 | 360 | 6.0 | 10.0 | 0.00 | 0.00 | 0.00 | 74 | 1020.9 |
| 20260509085557 | 56 | 360 | 4.0 | 9.0 | 0.00 | 0.00 | 0.00 | 75 | 1020.8 |
| 20260509085059 | 56 | 360 | 3.0 | 9.0 | 0.00 | 0.00 | 0.00 | 76 | 1020.8 |
| 20260509084604 | 56 | 360 | 4.0 | 9.0 | 0.00 | 0.00 | 0.00 | 77 | 1020.8 |
| 20260509084057 | 55 | 360 | 4.0 | 10.0 | 0.00 | 0.00 | 0.00 | 77 | 1020.8 |
| 20260509083556 | 55 | 360 | 7.0 | 11.0 | 0.00 | 0.00 | 0.00 | 75 | 1020.8 |
| 20260509083100 | 55 | 360 | 5.0 | 11.0 | 0.00 | 0.00 | 0.00 | 77 | 1020.9 |
| 20260509082557 | 55 | 360 | 5.0 | 11.0 | 0.00 | 0.00 | 0.00 | 76 | 1020.9 |
| 20260509082100 | 55 | 360 | 4.0 | 11.0 | 0.00 | 0.00 | 0.00 | 77 | 1020.9 |
| 20260509081557 | 55 | 360 | 5.0 | 11.0 | 0.00 | 0.00 | 0.00 | 77 | 1020.8 |
| 20260509081057 | 55 | 360 | 3.0 | 11.0 | 0.00 | 0.00 | 0.00 | 78 | 1020.8 |
| 20260509080556 | 54 | 360 | 4.0 | 11.0 | 0.00 | 0.00 | 0.00 | 79 | 1020.8 |